{"data":{"norad_id":57247,"intl_designator":"2023-094AF","name":"STARLINK-5039","alt_names":[],"object_type":"PAYLOAD","status":"ACTIVE","operator":null,"country":"US","launch_date":"2023-07-07","launch_site_code":"AFWTR","launch_vehicle":null,"mission":null,"orbit_class":"UNKNOWN","rcs_meters":null,"size_class":null,"mass_kg":null,"dimensions":null,"purposes":["comms"],"wikipedia_slug":null,"has_3d_model":false,"image_url":null,"decayed_at":null,"tle_current":{"epoch":"2026-09-20T06:38:19.395168Z","epoch_age_seconds":143587,"freshness":"FRESH","line1":"1 57247U 23094AF  26263.27661337  .00000071  00000+0  12120-4 0  9994","line2":"2 57247  43.0039   0.6094 0001675 266.8059  93.2601 15.27577278177007","mean_motion":15.27577278,"eccentricity":0.0001675,"inclination_deg":43.0039,"raan_deg":0.6094,"arg_perigee_deg":266.8059,"mean_anomaly_deg":93.2601,"bstar":1.212e-5,"rev_number":17700,"period_min":94.266916688191,"perigee_km":481.90799666267,"apogee_km":484.20649673531,"semimajor_km":6861.194246699,"source":"CELESTRAK","updated_at":"2026-09-21T09:00:33.590299Z"}}}